Showing default

SDX02, 62460

Orbit data source: Space-Track

SDX02, 62460 is a payload satellite owned by ISRO (IN) in LEO that was launched on Mon, 30 Dec 2024 UTC via a PSLV launch vehicle from the Sirharikota (SRI). Payload-class satellites include a variety of spacecraft equipped with specific instruments for various scientific and technological missions. These include communications satellites like Starlink; space stations such as the ISS; scientific satellites like the Hubble; Earth observation satellites from companies like Planet Labs, Umbra, and HawkEye 360; GPS; miniature CubeSats for education and research; and military/defense satellites.

Loading next visibility...
Identifier
62460, 2024-253B
Orbit
LEO
Country
Flag of ININ / IND
Related business
Manufacturer
ISRO
Mission
Operational Civil Technology
Bus & Motor
SPADEX, Unknown motor
Mass
220 kg wet, ~180 kg dry
Launch date (UTC)
2024-12-30 (1 year ago)
Launch vehicle
PSLV
Launch site
Sirharikota (SRI)
Object type
Payload
Rocket body
Debris
Shape & HBR
Box + 2 Pan, 1.3 m
Radar Cross Section
0.901 m², Large (>1 m²)

Expand to show TLE details & history
Last TLE update: 2 days ago

TLE from 2 days ago
0 SDX02
1 62460U 24253B   26033.63434814  .00045727  00000-0  68698-3 0  9996
2 62460  54.9941 254.7619 0004615 190.6501 169.4437 15.54475479 61501
Epoch: 2026-02-02T15:13Z
TLE epoch observation values (Epoch: 2026-02-02T15:13:27.679Z)
Latitude
-0.00002°
Longitude
-106.43026°
Altitude
407.861 km
Speed
7.665 km/s
True Right ascension
16h 59m 02s
True Declination
0° 00' 00"
Sunlit
Object was in daylight at epoch
Visualization orbit readout
Latitude
Unknown
Longitude
Unknown
Altitude
Unknown
Speed
Unknown
Apparent Right ascension
Unknown
Apparent Declination
Unknown
Sunlit
N/A
Visualization observer readout
Local Sidereal Time
18:07:20
Azimuth
Unknown
Elevation
Unknown
Doppler factor
Unknown
Orbital elements
Apogee altitude
406.77 km
Perigee altitude
400.511 km
Semi-major axis
6,781.778 km
Eccentricity
0.00046
Inclination
54.9941°
RAAN
254.7619°
Arg. of periapsis
190.6501°
True anomaly
169.45338°
Mean anomaly
169.4437°
Eccentric anomaly
169.44854°
Mean motion
3.88622 °/min
Orbital period
92.63 mins
BSTAR
0.00068698
Loading maneuver chart data...
Computing Atmospheric mass density...
Loading historical data...
Loading historical data...
Loading historical data...
Loading historical data...
Loading historical data...
Loading historical data...
Loading historical data...
Other satellites on launch #253 in the year 2024 (2024-12-30 UTC)

Documentation

Showing up to 5 results
|